Retour au catalogue

FENGYUN 1C DEB

ActifSSO
NORAD 35139·DEBRIS·🇨🇳 China

Lancé May 10, 1999 depuis Taiyuan Satellite Launch Center

Loading…

Prochains Passages (prochaines 24 heures)

TLE

VieillissantSource: Space-Track

Époque: Sep 7, 2026, 05:23 UTC

1 35139U 99025DLT 26250.22456185  .00000376  00000-0  18735-3 0  9997
2 35139  98.5874 253.0522 0067396 238.5198 120.9382 14.21487796679679

Suivez FENGYUN 1C DEB en temps réel avec AllMySat

Download on the App Store